FENGYUN 1C DEB, 30317

Orbit data source: Space-Track

FENGYUN 1C DEB, 30317 is space debris in SSO originally from a launch on Mon, 10 May 1999 UTC launched from the Taiyaun Space Center, China (TSC). Fengyun 1C debris stems from the Chinese weather satellite Fengyun-1C, which was intentionally destroyed by a Chinese anti-satellite missile in 2007. This event dramatically increased the amount of space debris, with thousands of trackable fragments posing hazards to satellites and human spaceflight. The Fengyun 1C debris cloud has become a focal point in discussions about space sustainability and the need for international regulations to prevent the creation of new debris.

Loading next visibility...
Identifier
30317, 1999-025AAE
Orbit
SSO
Country
Flag of CNCN / PRC
Related business
Manufacturer
Unknown
Mission
Spacecraft
Bus & Motor
Unknown
Mass
Unknown
Launch date (UTC)
1999-05-10 (27 years ago)
Launch vehicle
Unknown
Launch site
Taiyaun Space Center, China (TSC)
Object type
Payload
Rocket body
Debris
Shape & HBR
Unknown shape, 0.1 m
Radar Cross Section
Medium (>0.1 m² and <1 m²)

Expand to show TLE details & history
Last TLE update: 4 hours ago

TLE from 4 hours ago
0 FENGYUN 1C DEB
1 30317U 99025AAE 26166.47995475  .00000068  00000-0  66146-4 0  9991
2 30317  98.7901 166.8165 0026244 115.2824 245.1069 14.07038353996111
Epoch: 2026-06-15T11:31Z
TLE epoch observation values (Epoch: 2026-06-15T11:31:08.090Z)
Latitude
0.00004°
Longitude
90.26705°
Altitude
880.467 km
Speed
7.408 km/s
True Right ascension
11h 07m 15s
True Declination
0° 00' 00"
Sunlit
Object was in daylight at epoch
Visualization orbit readout
Latitude
Unknown
Longitude
Unknown
Altitude
Unknown
Speed
Unknown
Apparent Right ascension
Unknown
Apparent Declination
Unknown
Sunlit
N/A
Visualization observer readout
Local Sidereal Time
02:21:04
Azimuth
Unknown
Elevation
Unknown
Doppler factor
Unknown
Orbital elements
Apogee altitude
885.717 km
Perigee altitude
847.691 km
Semi-major axis
7,244.841 km
Eccentricity
0.00262
Inclination
98.7901°
RAAN
166.8165°
Arg. of periapsis
115.2824°
True anomaly
244.83448°
Mean anomaly
245.1069°
Eccentric anomaly
244.97065°
Mean motion
3.51965 °/min
Orbital period
102.28 mins
BSTAR
0.000066146
Loading maneuver chart data...
Computing Atmospheric mass density...

Documentation

Showing up to 5 results
|